This is the latest recevied weather packets stored in our database for station/object KD8UYA. If no packets are shown the sender has not sent any weather packets the latest 10 day(s).
| Time | Temp. | Humidity | Pressure | Rain* | Wind** | Luminosity | Snow |
|---|---|---|---|---|---|---|---|
| 1777658414 | 4.44° C | 95% | 1010.8 hPa | 0.76 mm | - | - | - |
| 1777657508 | 5° C | 95% | 1010.7 hPa | 0.76 mm | - | - | - |
| 1777656604 | 5° C | 95% | 1010.6 hPa | 0.51 mm | - | - | - |
| 1777655703 | 5° C | 95% | 1010.7 hPa | 0.51 mm | - | - | - |
| 1777654802 | 5° C | 95% | 1010.6 hPa | 0.76 mm | - | - | - |
| 1777653960 | 5° C | 95% | 1010.4 hPa | 1.02 mm | - | - | - |
| 1777653904 | 5° C | 95% | 1010.4 hPa | 1.02 mm | - | - | - |
| 1777653059 | 5° C | 95% | 1010.6 hPa | 1.27 mm | - | - | - |
| 1777652157 | 5° C | 95% | 1010.6 hPa | 2.03 mm | - | - | - |
| 1777651258 | 5.56° C | 95% | 1010.7 hPa | 2.54 mm | - | - | - |
| 1777650368 | 5.56° C | 95% | 1010.7 hPa | 2.54 mm | - | - | - |
| 1777649453 | 6.11° C | 95% | 1010.8 hPa | 2.54 mm | - | - | - |
| 1777648552 | 6.11° C | 95% | 1010.8 hPa | 2.54 mm | - | - | - |
| 1777647651 | 6.11° C | 94% | 1010.8 hPa | 2.29 mm | - | - | - |
| 1777646754 | 6.11° C | 94% | 1010.7 hPa | 1.78 mm | - | - | - |
| 1777645849 | 6.11° C | 94% | 1010.9 hPa | 1.27 mm | - | - | - |
| 1777644961 | 6.11° C | 94% | 1010.9 hPa | 0.51 mm | - | - | - |
| 1777644047 | 6.11° C | 93% | 1010.9 hPa | 0 mm | - | - | - |
| 1777643147 | 6.11° C | 93% | 1010.8 hPa | 0 mm | - | - | - |
| 1777642247 | 6.11° C | 93% | 1010.8 hPa | 0 mm | - | - | - |
| 1777641347 | 6.11° C | 93% | 1010.7 hPa | 0.25 mm | - | - | - |
| 1777640444 | 6.11° C | 93% | 1010.9 hPa | 0.25 mm | - | - | - |
| 1777639543 | 6.11° C | 93% | 1011.1 hPa | 0.25 mm | - | - | - |
| 1777638643 | 6.11° C | 91% | 1011 hPa | 0.25 mm | - | - | - |
| 1777637742 | 6.11° C | 91% | 1011.2 hPa | 0 mm | - | - | - |
* Rain latest hour (hover to see other rain measurements)
** Current wind speed in m/s (hover to see current wind gust speed)